Flag for Canada Weather past 2 weeks in Windsor, Ontario, Canada

Now
27 °F

Passing clouds.


Feels Like: 21 °F
Forecast: 26 / 41 °F
Wind: 5 mph from Southeast

Location: Windsor Weather Station

Current Time: Dec 21, 2014 at 8:36:25 PM

Latest Report: Dec 21, 2014 at 8:00 PM


Visibility: 8 mi

Pressure: 30.26 "Hg

Humidity: 80%

Dew point: 21 °F

Location of WindsorLocation

Historic Weather in Windsor — Graph

°F

Windsor temperature yesterday

Maximum temperature yesterday: 30 °F (at 12:00 PM)
Minimum temperature yesterday: 19 °F (at 1:00 AM)
Average temperature yesterday: 27 °F

Past Weeks' High & Low Weather Summary

 TemperatureHumidityPressure
High50 °F (Dec 14, 12:00 PM)100% (Dec 9, 6:00 AM)30.72 "Hg (Dec 9, 6:00 AM)
Low19 °F (Dec 11, 5:00 AM)26% (Dec 11, 3:00 PM)29.67 "Hg (Dec 16, 1:00 PM)
Average34 °F79%30.17 "Hg
* Reported Dec 6 7:00 PM — Dec 21 7:00 PM, Windsor, Weather by CustomWeather, © 2014

Note: Actual official high and low records may vary slightly from our data, if they occured in-between our weather recording intervals... More about our weather records

Advertising

Windsor weather history for previous 24 hours

 ConditionsComfort  
Time TempWeatherWind HumidityBarometerVisibility
7:00 PM
Dec 21
27 °FPassing clouds.5 mph86%30.27 "Hg8 mi
6:00 PM27 °FPassing clouds.5 mph86%30.27 "Hg6 mi
5:00 PM30 °FPartly sunny.6 mph80%30.27 "Hg6 mi
4:00 PM32 °FMostly cloudy.7 mph75%30.27 "Hg7 mi
3:00 PM34 °FOvercast.9 mph65%30.26 "Hg10 mi
2:00 PM34 °FBroken clouds.8 mph65%30.27 "Hg10 mi
1:00 PM34 °FMore clouds than sun.9 mph70%30.29 "Hg12 mi
12:00 PM34 °FBroken clouds.8 mph65%30.32 "Hg10 mi
11:00 AM32 °FPartly sunny.6 mph69%30.34 "Hg8 mi
10:00 AM28 °FHigh level clouds.2 mph86%30.34 "Hg7 mi
9:00 AM25 °FOvercast.2 mph93%30.33 "Hg7 mi
8:00 AM23 °FIce fog.2 mph93%30.34 "Hg6 mi
7:00 AM25 °FPassing clouds.6 mph93%30.34 "Hg7 mi
6:00 AM28 °FPassing clouds.No wind80%30.33 "Hg8 mi
5:00 AM28 °FPassing clouds.No wind86%30.32 "Hg12 mi
4:00 AM28 °FPassing clouds.2 mph86%30.32 "Hg15 mi
3:00 AM28 °FOvercast.2 mph86%30.32 "Hg10 mi
2:00 AM28 °FOvercast.No wind86%30.30 "Hg12 mi
1:00 AM28 °FOvercast.2 mph86%30.30 "Hg12 mi
12:00 AM28 °FOvercast.3 mph86%30.30 "Hg15 mi
11:00 PM
Dec 20
28 °FOvercast.5 mph86%30.31 "Hg12 mi
10:00 PM28 °FOvercast.2 mph86%30.32 "Hg12 mi
9:00 PM28 °FOvercast.2 mph86%30.32 "Hg15 mi
8:00 PM28 °FOvercast.2 mph86%30.32 "Hg15 mi
Weather by CustomWeather, © 2014

See weather overviewHow to use our weather pages